YAOGAN-28

Last updated on Mon Jun 22 2026 00:02:51 GMT+0000 (Coordinated Universal Time)

1 41026U 15064A 26172.51546970 .00005398 00000+0 20324-3 0 9992 2 41026 97.3080 310.6890 0011032 168.3464 191.8032 15.27465990591342
UTC large
Height (km)
Speed (km/s)
/
Latitude / Longitude
Inclination (degrees)
Orbital Period (minutes)
Azimuth
Elevation
Range (km)
Doppler Factor

Next 0 passes for location: London (51.5072 / 0.1276)

No passes found over London.
YAOGAN-28